Location: Ferchesar
(52.6477°N, 12.4298°E)
Time: 04:44:40
(UTC+02:00)

Vanguard 3 - Pass Details

Date: 03 March 2021
Orbit: 508 x 3262 km, 33.3° (Epoch: 15 April)

Event Time Altitude Azimuth Distance (km) Brightness Sun altitude
Rises 20:27:46 0° 265° (W) 6,261 12.7 -23.8°
Reaches altitude 10° 20:34:33 10° 248° (WSW) 4,642 11.5 -24.8°
Maximum altitude 20:40:44 16° 218° (SW) 3,551 10.5 -25.6°
Drops below altitude 10° 20:45:34 10° 185° (S) 3,431 10.1 -26.3°
Enters shadow 20:46:05 - 182° (S) 3,469 10.1 -26.4°
Sets 20:49:23 0° 163° (SSE) 3,939 - -26.8°
